sat.trackr.live / text

‹ back to catalog

IRIDIUM 137

NORAD 43076 · 2017-083G

PAYLOAD ACTIVE UNKNOWN

§ Identity

Operator
Country
US
Launch date
2017-12-23
Launch site
AFWTR
Launch vehicle
Mass (kg)
RCS (m²)

Purposes: comms

External: N2YO · Heavens-Above · Gunter

§ Orbital elements

Epoch: 2026-09-20T00:34:39.140832Z

Period
100.40 min
Inclination
86.3916°
Eccentricity
0.0002007
Mean motion
14.34217760 rev/d
Perigee alt
776.2 km
Apogee alt
779.1 km
Semi-major
7,155.8 km
B*
3.3956e-5
RAAN
282.5142°
Arg perigee
97.9943°
Mean anomaly
262.1481°
Rev number
45,776

§ Raw data

IRIDIUM 1371 43076U 17083G   26263.02406413  .00000115  00000+0  33956-4 0  99942 43076  86.3916 282.5142 0002007  97.9943 262.1481 14.34217760457767

JSON: /api/v1/satellites/43076 · /tle

For live sub-satellite position, see the globe view (requires WebGL).

§ Visibility from observer

Set your observer location to see the next 7 days of passes ≥ 10°. The values pass through the URL so the page stays shareable.

No JS? Fill the form by hand. The geolocation button needs JavaScript.